Regional Weather Roundup
Issued by NWS State College, PA

Home | Current Version | Previous Version | Graphics & Text | Print | Product List | Glossary Off
Versions: 1 2 3 4 5 6 7 8 9 10 11 12 13 14 15 16 17 18 19 20 21 22 23 24 25 26 27 28 29 30 31 32 33 34 35 36 37 38 39 40 41 42 43 44 45 46 47 48 49 50

000
ASUS41 KCTP 260403
RWRCTP

REGIONAL WEATHER ROUNDUP
NATIONAL WEATHER SERVICE STATE COLLEGE PA
1200 AM EDT WED JUL 26 2017

Note: "fair" indicates few or no clouds below 12,000 feet with no
significant weather and/or obstructions to visibility.

* = STATION THAT DOES NOT REPORT PRECIPITATION /E.G. RAIN...SNOW...ETC/
    THUNDER OR FOG.

PAZ002>004-007>009-013>016-020>023-029>032-260500-
WESTERN PENNSYLVANIA

CITY           SKY/WX    TMP DP  RH WIND       PRES   REMARKS
ERIE           CLEAR     59  55  87 CALM      30.24R
MEADVILLE      CLEAR     59  55  87 E3        30.26R
FRANKLIN*      CLEAR     57  52  82 CALM      30.26S
NEW CASTLE     FAIR      61  58  90 E5        30.24F
BEAVER COUNTY  NOT AVBL
BUTLER*        PTCLDY    59  55  88 NE6       30.24S
PITTSBURGH INT PTCLDY    66  60  81 CALM      30.22S
PITTSBURGH     PTCLDY    66  57  72 SW7       30.22S
INDIANA*       NOT AVBL
LATROBE        MOCLDY    64  63  94 S5        30.25S
WASHINGTON CO*   N/A     57  55  94 CALM      30.24S VSB 1/2
$$

PAZ004>006-010>012-017>019-024>028-033>037-041-042-045-046-049>053-260500-
CENTRAL PENNSYLVANIA

CITY           SKY/WX    TMP DP  RH WIND       PRES   REMARKS
BRADFORD       CLOUDY    58  56  93 E5        30.27S
DUBOIS         CLOUDY    58  54  86 E3        30.25S
CLEARFIELD     CLEAR     57  56  96 CALM      30.27R
JOHNSTOWN      CLOUDY    61  53  75 E3        30.27R
ALTOONA        CLOUDY    57  57 100 CALM      30.26R
STATE COLLEGE  PTCLDY    62  57  86 NE3       30.26R
WILLIAMSPORT   MOCLDY    63  59  87 CALM      30.23R
SELINSGROVE    CLEAR     60  60 100 CALM      30.24R
FT INDIANTOWN  CLEAR     64  59  83 CALM      30.22R
CAPITAL CITY   CLOUDY    71  57  61 N3        30.21R
HARRISBURG     MOCLDY    70  60  70 CALM      30.21R
YORK           CLOUDY    67  64  90 CALM      30.21R
$$

PAZ038>040-043-044-047-048-054-055-060>062-067>071-260500-
EASTERN PENNSYLVANIA

CITY           SKY/WX    TMP DP  RH WIND       PRES   REMARKS
SCRANTON       MOCLDY    65  59  81 N5        30.24S
MOUNT POCONO   CLOUDY    60  60 100 VRB3      30.25S
ALLENTOWN      CLOUDY    69  62  78 E7        30.21S
QUAKERTOWN*    CLOUDY    66  64  94 CALM      30.23R
READING        CLOUDY    68  65  90 NE3       30.20S
LANCASTER      CLOUDY    68  65  90 CALM      30.21R
COATESVILLE    CLOUDY    68  64  88 CALM      30.23R
POTTSTOWN      CLOUDY    66  65  96 NE3       30.23S
BLUE BELL      CLOUDY    64  63  94 E6        30.23S
DOYLESTOWN     CLOUDY    65  64  97 CALM      30.21S
WILLOW GROVE   NOT AVBL
NORTH PHILA    CLOUDY    68  63  84 E5        30.22S
PHILADELPHIA   CLOUDY    68  63  84 E8        30.21R
$$




USA.gov is the U.S. government's official web portal to all federal, state and local government web resources and services.